FW9676 Weather Reports


Display with metric or nautical units.
time (UTC)temp
F
wind
direction
speed
MPH
gust
MPH
rain 1hr
in
rain 24hr
in
rain mn
in
humidity
%
barometer
mb
20260904065019 65 0 0.0 1.0 0.00 0.00 0.00 85 1012.3
20260904064537 65 0 0.0 1.0 0.00 0.00 0.00 86 1012.4
20260904064025 65 0 0.0 0.0 0.00 0.00 0.00 85 1012.4
20260904063516 66 0 0.0 1.0 0.00 0.00 0.00 86 1012.3
20260904063040 66 0 0.0 2.0 0.00 0.00 0.00 86 1012.3
20260904062519 66 225 0.0 2.0 0.00 0.00 0.00 86 1012.3
20260904062018 66 0 0.0 0.0 0.00 0.00 0.00 87 1012.2
20260904061535 66 0 0.0 0.0 0.00 0.00 0.00 87 1012.2
20260904061020 67 0 0.0 0.0 0.00 0.00 0.00 87 1012.2
20260904060520 67 0 0.0 0.0 0.00 0.00 0.00 87 1012.2
20260904060107 67 0 0.0 2.0 0.00 0.00 0.00 87 1012.0
20260904055520 67 0 0.0 2.0 0.00 0.00 0.00 87 1012.1
20260904055019 67 225 0.0 2.0 0.00 0.00 0.00 87 1012.1
20260904054537 67 0 0.0 2.0 0.00 0.00 0.00 87 1012.2
20260904054016 67 225 0.0 4.0 0.00 0.00 0.00 87 1012.1
20260904053520 68 225 1.0 4.0 0.00 0.00 0.00 87 1012.2
20260904053117 68 212 0.0 4.0 0.00 0.00 0.00 87 1012.2
20260904052516 68 254 0.0 4.0 0.00 0.00 0.00 87 1012.3
20260904052016 68 259 0.0 4.0 0.00 0.00 0.00 87 1012.3
20260904051549 68 0 2.0 4.0 0.00 0.00 0.00 87 1012.4
20260904051026 68 0 0.0 4.0 0.00 0.00 0.00 87 1012.4
20260904050523 68 252 1.0 4.0 0.00 0.00 0.00 87 1012.4
20260904050037 68 227 1.0 4.0 0.00 0.00 0.00 87 1012.4
20260904045519 68 227 1.0 4.0 0.00 0.00 0.00 86 1012.3
20260904045018 68 0 2.0 5.0 0.00 0.00 0.00 86 1012.3
20260904044554 68 243 1.0 6.0 0.00 0.00 0.00 86 1012.2
20260904044017 68 239 1.0 6.0 0.00 0.00 0.00 86 1012.3
20260904043516 68 253 2.0 5.0 0.00 0.00 0.00 87 1012.2
20260904043035 68 249 1.0 6.0 0.00 0.00 0.00 86 1012.1
20260904042518 68 0 1.0 6.0 0.00 0.00 0.00 87 1012.1
20260904042019 68 244 2.0 6.0 0.00 0.00 0.00 87 1012.1
20260904041539 68 0 1.0 6.0 0.00 0.00 0.00 87 1012.1
20260904041019 68 210 2.0 7.0 0.00 0.00 0.00 87 1012.1
20260904040520 68 261 1.0 7.0 0.00 0.00 0.00 86 1012.0
20260904040047 68 284 2.0 7.0 0.00 0.00 0.00 86 1011.9
20260904035525 68 276 1.0 6.0 0.00 0.00 0.00 86 1012.0
20260904035026 68 269 3.0 6.0 0.00 0.00 0.00 86 1011.9
20260904034537 68 269 2.0 6.0 0.00 0.00 0.00 85 1011.9
20260904034018 68 278 1.0 5.0 0.00 0.00 0.00 85 1011.7
20260904033516 69 234 1.0 7.0 0.00 0.00 0.00 84 1011.8
20260904033049 68 261 2.0 7.0 0.00 0.00 0.00 84 1011.7
20260904032518 69 0 2.0 7.0 0.00 0.00 0.00 84 1011.7
20260904032017 69 260 3.0 7.0 0.00 0.00 0.00 85 1011.7
20260904031538 69 231 2.0 8.0 0.00 0.00 0.00 85 1011.7
20260904031020 69 266 2.0 10.0 0.00 0.00 0.00 85 1011.6
20260904030519 69 219 3.0 10.0 0.00 0.00 0.00 85 1011.7
20260904030036 69 283 2.0 9.0 0.00 0.00 0.00 85 1011.6
20260904025517 69 252 3.0 9.0 0.00 0.00 0.00 85 1011.6
20260904025017 69 240 2.0 9.0 0.00 0.00 0.00 85 1011.5
20260904024536 69 271 3.0 9.0 0.00 0.00 0.00 86 1011.5
20260904024019 69 234 2.0 8.0 0.00 0.00 0.00 86 1011.5
20260904023518 69 230 1.0 5.0 0.00 0.00 0.00 86 1011.6
20260904023050 69 228 2.0 7.0 0.00 0.00 0.00 86 1011.6
20260904022516 69 252 1.0 7.0 0.00 0.00 0.00 85 1011.6
20260904022020 69 217 2.0 8.0 0.00 0.00 0.00 85 1011.6
20260904021536 69 238 1.0 8.0 0.00 0.00 0.00 84 1011.6
20260904021020 70 254 2.0 8.0 0.00 0.00 0.00 84 1011.5
20260904020518 70 198 3.0 8.0 0.00 0.00 0.00 83 1011.5
20260904020040 70 272 1.0 8.0 0.00 0.00 0.00 82 1011.5
20260904015519 70 247 2.0 7.0 0.00 0.00 0.00 81 1011.5
20260904015019 71 221 1.0 7.0 0.00 0.00 0.00 81 1011.5
20260904014536 71 255 2.0 8.0 0.00 0.00 0.00 81 1011.6
20260904014017 70 238 2.0 9.0 0.00 0.00 0.00 81 1011.6
20260904013518 70 219 2.0 9.0 0.00 0.00 0.00 81 1011.7
20260904013035 71 264 5.0 9.0 0.00 0.00 0.00 80 1011.7
20260904012525 71 249 3.0 11.0 0.00 0.00 0.00 80 1011.6
20260904012018 71 218 3.0 11.0 0.00 0.00 0.00 80 1011.6
20260904011536 71 246 4.0 12.0 0.00 0.00 0.00 80 1011.7
20260904011018 71 225 5.0 12.0 0.00 0.00 0.00 79 1011.6
20260904010525 71 233 5.0 11.0 0.00 0.00 0.00 79 1011.6
20260904010035 72 228 5.0 12.0 0.00 0.00 0.00 78 1011.6
20260904005518 72 224 5.0 12.0 0.00 0.00 0.00 78 1011.6
20260904005019 72 221 5.0 14.0 0.00 0.00 0.00 77 1011.6
20260904004539 73 282 5.0 14.0 0.00 0.00 0.00 77 1011.6
20260904004018 73 242 7.0 14.0 0.00 0.00 0.00 77 1011.7
20260904003521 73 214 5.0 13.0 0.00 0.00 0.00 77 1011.7
20260904003038 73 227 6.0 12.0 0.00 0.00 0.00 76 1011.7
20260904002519 73 239 6.0 13.0 0.00 0.00 0.00 76 1011.6
20260904002021 73 206 5.0 13.0 0.00 0.00 0.00 77 1011.6
20260904001537 73 265 6.0 13.0 0.00 0.00 0.00 77 1011.7
20260904001017 73 222 6.0 13.0 0.00 0.00 0.00 76 1011.8
20260904000518 73 263 6.0 13.0 0.00 0.00 0.00 77 1011.7
20260904000048 74 271 7.0 13.0 0.00 0.00 0.00 76 1011.7
20260903235520 74 227 6.0 13.0 0.00 0.00 0.00 76 1011.8
20260903235019 74 258 5.0 16.0 0.00 0.00 0.00 77 1011.8
20260903234536 74 188 6.0 16.0 0.00 0.00 0.00 77 1011.9
20260903234019 74 325 6.0 16.0 0.00 0.00 0.00 77 1011.9
20260903233515 74 235 6.0 16.0 0.00 0.00 0.00 76 1012.0
20260903233048 74 272 6.0 15.0 0.00 0.00 0.00 75 1012.0
20260903232518 75 263 5.0 13.0 0.00 0.00 0.00 75 1012.0
20260903232018 75 250 6.0 15.0 0.00 0.00 0.00 75 1012.0
20260903231534 75 261 5.0 15.0 0.00 0.00 0.00 75 1012.1
20260903231017 75 236 7.0 15.0 0.00 0.00 0.00 75 1012.1
20260903230518 75 179 4.0 14.0 0.00 0.00 0.00 75 1012.2
20260903230046 74 276 7.0 14.0 0.00 0.00 0.00 75 1012.2
20260903225518 74 274 7.0 14.0 0.00 0.00 0.00 75 1012.2
20260903225018 74 263 6.0 14.0 0.00 0.00 0.00 75 1012.2
20260903224542 75 227 6.0 15.0 0.00 0.00 0.00 74 1012.2
20260903224022 75 259 6.0 15.0 0.00 0.00 0.00 74 1012.4
20260903223521 75 224 7.0 13.0 0.00 0.00 0.00 73 1012.5
20260903223058 76 230 5.0 16.0 0.00 0.00 0.00 74 1012.5
20260903222518 75 248 5.0 16.0 0.00 0.00 0.00 75 1012.5
20260903222022 75 270 6.0 16.0 0.00 0.00 0.00 75 1012.5
20260903221535 75 261 8.0 17.0 0.00 0.00 0.00 75 1012.6
20260903221017 74 257 7.0 17.0 0.00 0.00 0.00 76 1012.6
20260903220517 75 230 9.0 16.0 0.00 0.00 0.00 76 1012.6
20260903220038 75 240 7.0 15.0 0.00 0.00 0.00 76 1012.5
20260903215518 75 266 8.0 16.0 0.00 0.00 0.00 76 1012.7
20260903215017 75 286 8.0 16.0 0.00 0.00 0.00 76 1012.7
20260903214546 75 257 8.0 16.0 0.00 0.00 0.00 75 1012.7
20260903214018 75 256 7.0 15.0 0.00 0.00 0.00 75 1012.7
20260903213516 76 267 8.0 15.0 0.00 0.00 0.00 75 1012.6
20260903213048 76 243 8.0 15.0 0.00 0.00 0.00 75 1012.7
20260903212519 76 228 7.0 15.0 0.00 0.00 0.00 75 1012.7
20260903212017 77 237 8.0 15.0 0.00 0.00 0.00 73 1012.7
20260903211541 77 235 7.0 17.0 0.00 0.00 0.00 73 1012.7
20260903211018 77 236 8.0 17.0 0.00 0.00 0.00 73 1012.7
20260903210518 78 279 6.0 14.0 0.00 0.00 0.00 73 1012.7
20260903210047 78 299 6.0 14.0 0.00 0.00 0.00 73 1012.8
20260903205519 78 279 8.0 14.0 0.00 0.00 0.00 72 1012.8
20260903205019 78 238 5.0 12.0 0.00 0.00 0.00 72 1012.8
20260903204544 79 248 6.0 14.0 0.00 0.00 0.00 70 1012.9
20260903204019 79 272 4.0 16.0 0.00 0.00 0.00 71 1012.9
20260903203518 79 284 6.0 16.0 0.00 0.00 0.00 70 1012.9
20260903203037 80 228 5.0 13.0 0.00 0.00 0.00 69 1013.0
20260903202523 79 266 3.0 13.0 0.00 0.00 0.00 69 1013.0
20260903202021 79 257 4.0 13.0 0.00 0.00 0.00 69 1013.0
20260903201533 79 225 6.0 13.0 0.00 0.00 0.00 69 1013.0
20260903201019 79 245 5.0 12.0 0.00 0.00 0.00 69 1013.1
20260903200518 79 261 2.0 8.0 0.00 0.00 0.00 70 1013.1
20260903200034 79 264 4.0 11.0 0.00 0.00 0.00 70 1013.2
20260903195519 79 292 3.0 11.0 0.00 0.00 0.00 69 1013.1
20260903195019 78 352 3.0 13.0 0.00 0.00 0.00 72 1013.3
20260903194543 78 255 6.0 13.0 0.00 0.00 0.00 72 1013.3
20260903194017 78 300 4.0 12.0 0.00 0.00 0.00 72 1013.4
20260903193522 77 294 3.0 12.0 0.00 0.00 0.00 73 1013.5
20260903193041 77 254 7.0 12.0 0.00 0.00 0.00 73 1013.5
20260903192516 77 247 5.0 11.0 0.00 0.00 0.00 74 1013.6
20260903192015 77 237 5.0 11.0 0.00 0.00 0.00 74 1013.7
20260903191536 76 274 5.0 10.0 0.00 0.00 0.00 75 1013.8
20260903191018 75 277 6.0 11.0 0.00 0.00 0.00 75 1013.8
20260903190518 75 236 4.0 11.0 0.00 0.00 0.00 75 1013.9
20260903190035 76 251 4.0 9.0 0.00 0.00 0.00 75 1013.9
20260903185519 76 236 3.0 10.0 0.00 0.00 0.00 74 1014.0
20260903185023 76 202 3.0 10.0 0.00 0.00 0.00 74 1014.1
20260903184548 76 233 4.0 11.0 0.00 0.00 0.00 75 1014.1
20260903184022 76 261 4.0 11.0 0.00 0.00 0.00 75 1014.1
20260903183517 76 250 4.0 11.0 0.00 0.00 0.00 75 1014.2
20260903183039 75 279 4.0 11.0 0.00 0.00 0.00 75 1014.2
20260903182519 75 255 4.0 10.0 0.00 0.00 0.00 75 1014.3
20260903182015 75 248 5.0 11.0 0.00 0.00 0.00 74 1014.4
20260903181538 76 240 5.0 11.0 0.00 0.00 0.00 74 1014.3
20260903181022 76 254 4.0 11.0 0.00 0.00 0.00 74 1014.3
20260903180517 75 269 3.0 8.0 0.00 0.00 0.00 74 1014.4
20260903180039 75 263 3.0 9.0 0.00 0.00 0.00 75 1014.3
20260903175517 75 244 3.0 10.0 0.00 0.00 0.00 74 1014.2
20260903175019 75 240 4.0 10.0 0.00 0.00 0.00 74 1014.3
20260903174534 75 245 3.0 8.0 0.00 0.00 0.00 73 1014.3
20260903174021 75 219 2.0 7.0 0.00 0.00 0.00 74 1014.4
20260903173522 75 236 4.0 7.0 0.00 0.00 0.00 74 1014.3
20260903173035 75 277 2.0 6.0 0.00 0.00 0.00 74 1014.5
20260903172517 74 0 2.0 8.0 0.00 0.00 0.00 75 1014.5
20260903172021 74 279 3.0 8.0 0.00 0.00 0.00 75 1014.4
20260903171536 74 294 2.0 7.0 0.00 0.00 0.00 76 1014.5
20260903171016 74 202 2.0 7.0 0.00 0.00 0.00 75 1014.4
20260903170516 74 267 0.0 7.0 0.00 0.00 0.00 76 1014.4
20260903170034 74 221 3.0 8.0 0.00 0.00 0.00 75 1014.4
20260903165515 74 269 3.0 8.0 0.00 0.00 0.00 74 1014.4
20260903165018 75 244 3.0 7.0 0.00 0.00 0.00 73 1014.3
20260903164533 76 0 2.0 6.0 0.00 0.00 0.00 73 1014.3
20260903164020 75 23 1.0 4.0 0.00 0.00 0.00 74 1014.3
20260903163519 75 152 0.0 3.0 0.00 0.00 0.00 72 1014.3
20260903163042 75 101 1.0 4.0 0.00 0.00 0.00 73 1014.4
20260903162522 74 0 0.0 6.0 0.00 0.00 0.00 74 1014.4
20260903162020 74 71 2.0 7.0 0.00 0.00 0.00 75 1014.4
20260903161533 73 121 2.0 7.0 0.00 0.00 0.00 76 1014.4
20260903161016 72 83 3.0 6.0 0.00 0.00 0.00 77 1014.3
20260903160516 72 20 1.0 7.0 0.00 0.00 0.00 78 1014.3
20260903160042 71 53 3.0 7.0 0.00 0.00 0.00 78 1014.4
20260903155519 71 182 1.0 7.0 0.00 0.00 0.00 81 1014.4
20260903155020 70 146 2.0 7.0 0.00 0.00 0.00 81 1014.4
20260903154534 70 0 1.0 4.0 0.00 0.00 0.00 84 1014.4
20260903154020 69 165 1.0 5.0 0.00 0.00 0.00 85 1014.4
20260903153519 68 0 0.0 5.0 0.00 0.00 0.00 84 1014.4
20260903153037 68 190 0.0 3.0 0.00 0.00 0.00 85 1014.4
20260903152521 68 106 0.0 3.0 0.00 0.00 0.00 86 1014.3
20260903152022 68 150 1.0 2.0 0.00 0.00 0.00 87 1014.3
20260903151535 67 107 0.0 2.0 0.00 0.00 0.00 88 1014.4
20260903151018 67 0 0.0 3.0 0.00 0.00 0.00 89 1014.3
20260903150521 67 0 0.0 3.0 0.00 0.00 0.00 89 1014.3
20260903150049 66 0 1.0 3.0 0.00 0.00 0.00 90 1014.4
20260903145515 66 143 0.0 3.0 0.00 0.00 0.00 91 1014.4
20260903145015 66 191 1.0 3.0 0.00 0.00 0.00 92 1014.3
20260903144539 66 0 0.0 2.0 0.00 0.00 0.00 92 1014.3
20260903144019 65 191 0.0 2.0 0.00 0.00 0.00 92 1014.2
20260903143521 65 0 0.0 2.0 0.00 0.00 0.00 92 1014.1
20260903143034 65 0 0.0 2.0 0.00 0.00 0.00 93 1014.1
20260903142519 65 0 0.0 2.0 0.00 0.00 0.00 93 1014.0
20260903142019 65 0 0.0 2.0 0.00 0.00 0.00 93 1013.9
20260903141535 64 0 0.0 0.0 0.00 0.00 0.00 93 1013.9
20260903141018 64 0 0.0 1.0 0.00 0.00 0.00 93 1013.8
20260903140516 64 0 0.0 1.0 0.00 0.00 0.00 93 1013.8
20260903140041 64 0 0.0 0.0 0.00 0.00 0.00 93 1013.7
20260903135518 64 0 0.0 0.0 0.00 0.00 0.00 93 1013.7
20260903135018 64 0 0.0 0.0 0.00 0.00 0.00 93 1013.7
20260903134543 64 0 0.0 0.0 0.00 0.00 0.00 93 1013.7
20260903134015 64 0 0.0 0.0 0.00 0.00 0.00 93 1013.7
20260903133520 64 0 0.0 0.0 0.00 0.00 0.00 93 1013.7
20260903133034 64 0 0.0 0.0 0.00 0.00 0.00 93 1013.7
20260903132519 64 0 0.0 0.0 0.00 0.00 0.00 93 1013.7
20260903132019 64 0 0.0 0.0 0.00 0.00 0.00 93 1013.7
20260903131536 63 0 0.0 0.0 0.00 0.00 0.00 93 1013.7
20260903131019 63 0 0.0 0.0 0.00 0.00 0.00 93 1013.7
20260903130520 63 0 0.0 0.0 0.00 0.00 0.00 92 1013.7
20260903130043 63 0 0.0 0.0 0.00 0.00 0.00 92 1013.7
20260903125517 63 0 0.0 0.0 0.00 0.00 0.00 92 1013.6
20260903125018 63 0 0.0 0.0 0.00 0.00 0.00 92 1013.7
20260903124533 64 0 0.0 0.0 0.00 0.00 0.00 92 1013.7
20260903124017 64 0 0.0 0.0 0.00 0.00 0.00 91 1013.6
20260903123519 64 0 0.0 0.0 0.00 0.00 0.00 91 1013.7
20260903123042 64 0 0.0 0.0 0.00 0.00 0.00 91 1013.7
20260903122520 64 0 0.0 0.0 0.00 0.00 0.00 91 1013.7
20260903122020 64 0 0.0 0.0 0.00 0.00 0.00 92 1013.6
20260903121552 64 0 0.0 0.0 0.00 0.00 0.00 92 1013.6
20260903121016 64 0 0.0 0.0 0.00 0.00 0.00 91 1013.6
20260903120518 64 0 0.0 0.0 0.00 0.00 0.00 91 1013.6
20260903120037 65 0 0.0 0.0 0.00 0.00 0.00 91 1013.7
20260903115519 65 0 0.0 0.0 0.00 0.00 0.00 91 1013.7
20260903115021 65 0 0.0 0.0 0.00 0.00 0.00 91 1013.7
20260903114539 65 0 0.0 4.0 0.00 0.00 0.00 91 1013.8
20260903114019 65 0 0.0 4.0 0.00 0.00 0.00 92 1013.8
20260903113519 65 0 0.0 4.0 0.00 0.00 0.00 92 1013.8
20260903113035 65 0 0.0 4.0 0.00 0.00 0.00 91 1013.9
20260903112525 65 0 0.0 4.0 0.00 0.00 0.00 91 1013.9
20260903112018 65 0 0.0 1.0 0.00 0.00 0.00 91 1013.9
20260903111533 65 0 0.0 0.0 0.00 0.00 0.00 91 1013.9
20260903111017 65 0 0.0 0.0 0.00 0.00 0.00 91 1013.9
20260903110516 65 0 0.0 0.0 0.00 0.00 0.00 91 1014.0
20260903110035 66 0 0.0 0.0 0.00 0.00 0.00 91 1013.9
20260903105523 66 0 0.0 0.0 0.00 0.00 0.00 91 1014.0
20260903105020 66 0 0.0 2.0 0.00 0.00 0.00 91 1013.9
20260903104548 66 0 0.0 2.0 0.00 0.00 0.00 91 1013.9
20260903104019 66 0 0.0 2.0 0.00 0.00 0.00 91 1013.9
20260903103518 66 0 0.0 4.0 0.00 0.00 0.00 91 1013.9
20260903103038 66 0 0.0 4.0 0.00 0.00 0.00 91 1013.9
20260903102517 66 0 0.0 2.0 0.00 0.00 0.00 91 1014.0
20260903102020 66 0 0.0 2.0 0.00 0.00 0.00 91 1014.0
20260903101544 66 0 0.0 2.0 0.00 0.00 0.00 91 1014.1
20260903101016 66 215 1.0 2.0 0.00 0.00 0.00 90 1014.1
20260903100517 66 215 0.0 2.0 0.00 0.00 0.00 90 1014.0
20260903100041 66 0 0.0 2.0 0.00 0.00 0.00 90 1014.1
20260903095516 67 215 0.0 2.0 0.00 0.00 0.00 90 1014.0
20260903095017 67 215 0.0 2.0 0.00 0.00 0.00 90 1014.1
20260903094534 67 0 0.0 1.0 0.00 0.00 0.00 89 1014.2
20260903094021 67 0 0.0 2.0 0.00 0.00 0.00 90 1014.1
20260903093525 67 0 0.0 2.0 0.00 0.00 0.00 90 1014.1
20260903093036 67 0 0.0 3.0 0.00 0.00 0.00 90 1014.1
20260903092519 68 0 0.0 3.0 0.00 0.00 0.00 90 1014.1
20260903092018 68 254 0.0 2.0 0.00 0.00 0.00 89 1014.2
20260903091550 68 0 0.0 3.0 0.00 0.00 0.00 89 1014.3
20260903091019 68 0 0.0 4.0 0.00 0.00 0.00 89 1014.2
20260903090516 68 205 0.0 4.0 0.00 0.00 0.00 89 1014.3
20260903090035 68 249 1.0 6.0 0.00 0.00 0.00 89 1014.3
20260903085517 68 247 2.0 6.0 0.00 0.00 0.00 89 1014.3
20260903085018 68 0 1.0 4.0 0.00 0.00 0.00 89 1014.2
20260903084535 68 246 1.0 9.0 0.00 0.00 0.00 89 1014.3
20260903084021 68 215 1.0 9.0 0.00 0.00 0.00 89 1014.4
20260903083518 68 267 2.0 9.0 0.00 0.00 0.00 88 1014.5
20260903083037 68 248 3.0 9.0 0.00 0.00 0.00 88 1014.4
20260903082518 68 265 3.0 8.0 0.00 0.00 0.00 88 1014.4
20260903082016 68 265 3.0 8.0 0.00 0.00 0.00 88 1014.5
20260903081537 68 265 3.0 8.0 0.00 0.00 0.00 88 1014.6
20260903081019 68 280 2.0 8.0 0.00 0.00 0.00 88 1014.7
20260903080518 68 265 2.0 8.0 0.00 0.00 0.00 88 1014.7
20260903080041 68 265 3.0 7.0 0.00 0.00 0.00 88 1014.8
20260903075521 68 268 2.0 10.0 0.00 0.00 0.00 88 1014.9
20260903075017 68 264 2.0 10.0 0.00 0.00 0.00 87 1014.8
20260903074540 68 264 2.0 8.0 0.00 0.00 0.00 87 1014.8
20260903074018 68 252 3.0 8.0 0.00 0.00 0.00 88 1014.9
20260903073519 68 242 3.0 8.0 0.00 0.00 0.00 87 1014.8
20260903073039 68 0 2.0 8.0 0.00 0.00 0.00 87 1014.7
20260903072519 68 246 1.0 9.0 0.00 0.00 0.00 87 1014.6
20260903072019 68 258 3.0 9.0 0.00 0.00 0.00 87 1014.6
20260903071537 68 254 2.0 7.0 0.00 0.00 0.00 88 1014.7
20260903071018 68 264 2.0 7.0 0.00 0.00 0.00 88 1014.6
20260903070518 68 266 3.0 8.0 0.00 0.00 0.00 88 1014.5
20260903070034 68 249 2.0 8.0 0.00 0.00 0.00 88 1014.5
20260903065518 68 229 3.0 8.0 0.00 0.00 0.00 87 1014.6